Wind_Speed
19 18 14 14 15 15 15 14 12 10 14 15 14 15 17 18 19 18 15 15 15 15 15 15 15 16 14 13 15 16 17 19 20 20 20 18 17 17 17 16 17 17 16
25 20 17 17 17 15 15 13 12 11 12 13 12 15 16 17 16 14 13 14 14 15 16 15 15 15 15 15 15 15 17 18 17 18 18 16 15 16 15 15 16 16 16
26 21 18 18 17 16 16 16 15 14 13 13 14 15 14 15 15 14 16 16 16 16 14 14 15 15 14 15 15 15 18 18 17 15 17 17 17 15 14 14 15 15 16
26 22 20 19 17 17 18 17 16 13 13 14 14 15 16 15 15 15 16 16 15 15 14 14 14 13 14 15 16 16 15 17 16 12 15 15 13 12 12 12 13 11 13
24 22 20 19 18 18 18 16 14 13 13 14 14 16 16 15 16 16 16 16 15 15 14 13 13 13 14 13 15 15 13 10 7 11 13 15 15 12 11 12 12 10 11
25 23 20 19 17 17 17 15 14 12 13 15 15 15 16 16 15 16 17 16 14 13 13 13 13 13 13 14 12 10 9 8 8 12 11 13 13 12 12 9 11 11 12
29 25 20 18 17 17 16 15 14 12 13 15 15 15 15 15 14 15 14 15 14 13 13 12 13 12 12 11 10 11 8 10 13 10 12 11 12 12 9 10 9 10 11
31 26 21 18 16 15 15 14 14 13 13 14 14 14 14 16 15 15 13 14 13 12 12 13 12 13 12 11 12 12 11 13 10 11 12 12 11 10 10 9 9 8 9
29 27 22 19 16 14 14 14 14 13 13 12 14 15 15 15 15 15 13 12 12 12 11 11 12 12 12 11 12 13 12 6 9 12 12 12 11 10 9 8 9 9 8
27 25 23 20 18 16 16 16 15 14 13 13 14 15 15 15 14 13 12 10 11 10 10 10 11 11 12 10 9 10 6 6 9 8 10 11 11 10 9 8 8 8 7
24 25 23 21 19 18 18 16 15 14 13 14 13 14 15 14 14 12 11 10 9 10 9 10 10 12 12 9 7 6 6 8 8 7 8 10 9 9 8 8 7 7 7
26 25 23 22 20 19 18 16 16 15 15 15 15 15 14 13 12 11 10 10 11 9 9 10 10 12 11 12 7 5 4 9 9 8 8 9 7 9 8 9 7 7 7
29 26 25 23 20 20 18 16 15 14 15 15 16 15 14 10 10 11 11 12 12 10 11 11 12 10 7 10 14 5 9 12 7 10 9 7 6 9 9 8 7 6 8
30 29 26 24 22 20 20 19 18 18 17 16 15 12 12 15 12 12 13 12 13 13 11 12 12 11 11 11 11 9 11 11 10 11 11 9 6 6 6 7 6 5 5
29 30 30 27 23 22 23 20 19 19 18 15 14 12 12 17 14 12 12 12 12 10 10 9 9 11 6 8 8 14 19 19 15 12 12 11 9 6 5 5 5 5 5
31 31 32 30 26 24 24 21 20 19 17 17 15 13 15 19 10 12 10 11 12 11 9 12 11 10 8 11 9 8 10 20 21 18 16 13 14 11 8 7 7 6 6
35 34 34 32 28 26 24 22 21 19 17 20 18 18 14 14 13 11 10 10 6 10 14 14 14 11 8 8 8 10 9 8 9 22 19 18 18 13 10 9 9 8 8
34 36 30 32 28 28 22 20 22 23 19 22 20 20 18 17 14 13 11 11 8 7 15 17 16 13 10 9 10 12 13 12 11 14 18 19 18 19 17 15 14 12 11
42 37 32 31 27 27 21 17 12 15 23 21 21 20 18 15 15 13 9 5 10 12 14 14 15 11 10 5 6 11 14 14 14 16 19 21 22 22 22 21 22 18 16
41 36 30 28 27 25 18 20 13 8 25 24 23 23 19 18 16 13 12 7 10 11 14 14 15 13 12 9 9 11 12 17 16 18 21 22 25 26 25 25 23 23 20
37 34 31 29 26 23 20 22 16 10 22 25 23 22 19 18 18 13 17 12 9 11 10 11 11 16 15 13 10 12 14 18 21 20 23 24 25 26 26 24 22 24 30
38 35 35 33 30 27 25 21 22 14 19 25 25 26 21 18 17 16 15 17 15 15 14 15 14 14 15 14 6 5 3 3 14 19 22 23 26 25 26 24 24 23 24
37 37 34 36 34 31 29 23 21 17 15 25 24 24 25 20 17 18 17 15 15 16 16 15 16 18 16 13 17 7 1 3 3 6 15 21 23 25 26 23 24 24 24
37 40 36 33 34 32 30 26 25 25 20 21 25 25 25 23 21 19 20 18 16 17 16 17 16 17 17 16 13 21 19 5 1 4 5 14 18 22 23 25 24 25 24
36 39 39 34 33 32 30 26 27 27 23 20 22 27 26 26 24 23 23 22 20 19 18 18 18 17 19 18 19 14 16 19 17 9 4 8 11 19 24 27 27 27 25
34 37 37 37 35 34 32 28 28 29 25 21 18 25 27 28 27 27 27 25 23 23 22 21 21 19 20 20 20 21 19 9 9 11 6 5 11 19 16 22 26 29 28
Wind_Direction
162 153 147 141 138 134 132 127 123 105 101 87 92 94 98 99 105 108 106 110 109 106 99 96 100 98 101 100 102 103 105 107 105 97 100 105 106 104 101 107 105 109 108
152 151 147 143 143 139 138 134 120 118 111 94 100 103 105 104 106 103 105 107 110 108 103 104 104 106 107 104 102 103 105 100 99 103 103 102 106 106 109 111 111 113 113
150 150 147 145 146 140 141 134 124 118 114 111 113 111 109 108 109 104 97 103 109 108 112 111 113 110 111 105 106 108 107 98 90 91 106 108 105 118 106 104 110 111 115
150 151 151 149 146 139 139 132 131 123 116 114 111 112 112 114 112 109 103 108 109 115 117 115 112 107 104 105 109 108 107 109 93 94 103 100 102 116 113 109 111 111 112
149 151 148 147 146 139 141 137 131 120 117 118 114 108 109 114 115 114 112 112 119 118 118 113 109 105 101 103 96 103 103 118 101 120 112 117 115 108 113 117 118 114 108
149 146 145 148 147 145 143 143 133 122 123 118 116 112 109 112 114 117 114 119 117 119 118 114 111 110 110 104 85 74 89 114 116 124 114 114 112 119 116 114 120 124 113
147 146 146 147 150 151 150 149 141 128 121 122 115 118 117 116 119 116 118 120 122 119 117 116 121 118 117 108 82 68 66 128 125 121 122 111 109 109 120 117 121 115 122
146 144 143 148 151 152 156 154 145 130 123 125 123 124 124 125 123 124 126 122 121 122 121 123 125 134 126 108 89 71 96 121 133 128 118 109 104 108 118 115 117 117 127
146 146 151 150 148 151 159 160 149 137 129 129 131 133 130 129 132 133 129 132 130 127 125 124 129 138 132 113 87 93 98 114 125 127 127 122 119 123 125 120 123 135 127
149 150 151 150 152 145 145 147 148 146 140 141 140 141 137 135 136 138 142 142 139 138 139 136 130 140 140 122 93 102 94 115 128 128 132 129 134 134 130 130 123 137 136
155 156 153 151 152 148 147 147 149 149 152 152 146 147 143 141 136 137 144 151 150 141 142 138 133 131 136 113 122 100 98 132 141 131 138 135 139 134 137 132 135 148 148
163 163 160 155 154 158 159 163 163 159 157 155 153 152 144 145 142 145 152 148 144 143 136 133 129 129 138 136 133 123 60 173 167 152 158 154 147 147 145 141 145 146 153
166 162 164 158 159 159 162 166 170 166 163 160 156 156 150 160 159 165 159 160 154 145 136 133 134 134 148 154 178 172 190 156 170 165 167 152 170 157 153 149 144 148 145
171 169 167 160 159 162 157 156 157 161 161 163 165 168 190 182 180 174 174 166 161 157 151 155 163 170 203 201 198 225 193 192 183 175 168 169 187 187 164 155 152 152 150
174 177 174 168 168 170 173 162 171 170 174 176 175 179 189 190 186 179 177 183 181 174 186 185 181 196 186 187 203 207 223 207 187 194 186 175 175 197 198 179 164 170 173
177 179 181 177 176 178 184 175 183 186 182 185 187 188 193 200 208 193 191 209 221 221 212 209 199 193 191 188 201 195 210 222 229 216 199 185 199 200 227 208 191 188 188
179 179 187 180 182 187 190 190 196 194 194 188 186 187 191 185 199 205 202 203 212 219 213 203 196 191 199 191 207 208 206 233 239 210 207 210 219 218 232 228 224 211 201
174 171 169 178 184 186 191 192 203 201 196 195 198 195 196 199 203 205 221 210 202 197 197 206 200 187 205 211 216 214 216 225 232 222 230 223 228 220 231 249 250 233 219
173 172 171 172 174 179 178 182 176 209 203 194 201 199 198 198 198 210 216 220 215 213 204 207 203 214 221 230 267 234 230 231 233 229 231 235 235 235 238 237 245 240 228
178 179 177 182 186 190 188 197 187 193 208 207 207 203 203 206 209 218 221 233 216 212 218 221 219 216 225 241 262 268 254 247 246 243 242 241 240 242 245 245 243 232 236
180 180 182 180 181 184 188 192 196 195 204 198 206 210 209 215 210 219 214 222 212 215 220 224 223 219 221 237 254 273 268 254 250 250 246 246 246 247 247 249 248 245 240
182 185 186 187 185 186 189 196 202 194 198 199 208 209 209 207 213 210 220 226 233 233 237 237 234 231 236 236 235 255 309 281 245 246 241 244 247 250 249 251 249 250 246
183 186 186 190 191 191 194 196 200 204 207 205 208 213 209 215 220 220 225 230 227 228 234 236 245 245 253 244 234 224 242 241 307 247 241 245 252 252 255 257 256 253 251
187 190 191 191 193 194 195 199 202 208 218 219 214 215 217 218 224 226 227 229 227 224 229 237 243 248 242 243 239 240 247 263 248 315 253 259 259 257 255 256 259 257 254
188 191 195 197 196 198 200 206 209 215 224 231 230 226 222 222 226 229 232 233 232 232 234 233 234 236 234 238 235 245 241 247 252 240 276 275 271 264 259 259 257 258 256
189 191 194 198 202 204 205 211 214 220 227 230 228 230 229 231 231 235 239 235 236 239 236 234 237 238 234 235 242 243 245 226 223 216 233 304 290 296 277 268 263 257 258
Height
834 835 837 837 839 841 841 841 842 843 843 843 843 842 842 842 843 844 845 846 847 847 848 850 851 852 853 853 853 853 853 852 852 853 853 854 855 856 856 856 857 857 859
831 835 836 837 839 841 842 842 843 844 845 845 845 845 844 845 845 847 848 848 848 849 850 852 853 854 854 855 855 855 855 855 855 854 855 856 857 859 859 859 859 859 860
831 835 837 838 840 842 843 844 845 846 847 847 847 846 847 848 849 850 849 850 851 852 853 854 855 855 856 857 857 857 857 857 857 858 858 858 859 861 862 862 862 862 862
832 835 838 839 840 842 844 846 847 849 848 847 848 848 849 849 849 850 851 853 855 855 856 856 857 857 859 859 858 859 859 860 860 861 861 861 862 863 864 865 866 865 865
834 836 838 839 840 844 845 847 848 849 848 849 849 849 849 850 850 851 853 855 857 858 859 859 860 860 860 860 861 862 863 863 863 862 862 861 862 865 866 867 867 867 867
834 837 839 840 842 845 846 846 849 850 850 850 851 852 853 853 854 854 856 858 859 860 861 861 861 862 862 863 863 864 865 865 864 864 865 866 866 866 868 869 868 868 868
834 838 840 841 843 845 847 847 849 851 852 853 853 854 854 856 857 859 860 861 862 861 862 862 862 864 865 866 866 867 867 867 867 866 867 868 868 869 871 871 871 871 870
834 838 841 843 844 845 847 848 851 853 854 854 855 856 856 857 859 861 862 864 864 863 863 863 864 864 866 868 869 869 868 870 870 869 869 870 872 872 871 873 873 873 873
837 838 841 844 846 847 848 850 853 854 855 856 857 857 858 859 860 862 863 864 865 865 866 866 866 866 868 869 870 870 871 871 870 870 870 870 871 873 873 874 874 873 875
838 840 842 844 846 847 849 852 854 855 857 858 859 859 859 860 862 863 864 865 866 867 868 868 867 868 869 870 870 871 871 870 871 871 871 871 872 874 875 874 875 875 876
841 841 842 844 847 849 852 854 855 857 858 859 860 860 861 862 863 865 865 865 867 868 869 870 869 869 870 871 870 871 871 871 873 873 873 874 874 875 875 875 875 876 877
840 841 843 844 847 850 853 855 856 856 857 859 860 860 862 863 865 865 866 866 867 869 870 871 871 871 871 872 872 871 870 870 872 874 875 875 875 876 876 875 875 876 877
837 840 842 843 846 848 851 853 854 856 857 858 860 861 862 864 865 865 866 866 867 869 870 871 871 872 872 873 873 872 872 870 871 874 875 875 877 876 876 876 875 876 877
836 837 840 843 845 848 849 851 853 855 857 859 860 861 862 863 866 866 866 867 868 870 871 872 873 873 872 873 873 874 873 873 873 873 874 876 879 879 878 875 876 877 878
834 836 839 841 844 846 848 850 852 854 856 858 860 861 862 863 865 866 867 868 869 871 872 872 873 873 872 873 872 872 873 874 873 874 875 877 877 879 878 876 876 877 878
832 834 836 839 842 844 847 848 850 852 855 857 859 860 862 863 865 867 867 868 869 870 872 873 873 872 871 872 872 872 871 871 873 875 876 876 877 876 876 875 875 876 877
829 832 834 837 840 842 845 847 849 851 853 855 858 859 861 863 865 866 867 868 868 868 869 871 871 872 871 870 870 870 870 870 870 871 873 872 874 873 873 874 876 875 876
828 831 834 836 839 841 844 846 848 850 852 854 857 859 860 861 863 865 866 867 867 866 867 870 871 871 871 870 869 868 868 868 869 869 871 871 870 871 872 872 874 874 874
825 829 832 835 838 840 843 846 848 849 852 854 856 858 858 860 861 863 865 865 866 867 867 869 869 868 867 867 869 867 866 866 867 867 868 868 868 868 869 870 871 872 873
823 827 830 833 836 839 842 845 848 848 850 852 854 856 858 859 860 862 863 863 863 864 866 866 866 866 865 864 863 865 865 865 865 865 864 865 865 865 866 867 869 869 870
821 825 828 831 833 836 840 843 845 847 849 851 853 856 857 858 858 859 860 862 862 863 863 863 863 863 863 864 864 862 861 862 863 862 862 862 862 862 862 863 864 865 867
817 821 824 827 829 833 836 839 843 846 847 848 850 852 853 854 855 856 857 859 861 862 861 861 861 861 861 862 862 864 862 859 857 857 858 857 858 858 858 858 859 861 862
814 817 820 823 826 829 834 837 840 843 845 846 847 848 851 852 852 853 854 855 856 857 858 859 859 859 859 860 860 862 863 862 856 853 854 854 852 854 854 854 854 855 856
809 813 817 820 823 827 831 835 836 837 840 842 843 844 847 849 849 849 850 851 851 852 853 854 855 856 856 857 858 857 857 857 857 855 850 849 848 847 848 848 848 848 851
804 808 813 818 823 827 831 833 835 836 838 841 842 842 843 844 845 845 845 846 848 849 849 850 851 851 852 853 853 853 853 854 854 854 851 846 845 844 843 844 843 843 845
802 805 810 815 820 825 829 832 834 834 836 838 839 839 839 840 841 841 841 843 844 846 846 845 846 846 846 846 848 849 850 850 848 849 851 849 844 841 839 838 838 837 839